Location: Rye
(30.7294°N, 96.4902°W)
Time: 16:54:02
(UTC+00:00)

Tiros 1 despin weight - Pass Details

Date: 12 December 2025
Orbit: 557 x 596 km, 48.2° (Epoch: 10 January)

Event Time Altitude Azimuth Distance (km) Brightness Sun altitude
Rises 00:41:55 0° 269° (W) 2,782 ? -16.1°
Reaches altitude 10° 00:44:46 10° 287° (WNW) 1,877 ? -16.7°
Maximum altitude 00:47:49 19° 333° (NNW) 1,395 ? -17.3°
Enters shadow 00:50:02 13° 9° (N) 1,661 ? -17.8°
